Location: Cleveland
(41.4990°N, 81.6960°W)
Time: 14:58:09
(UTC-04:00)

N. Korean satellite - Pass Details

Date: 25 September 2021
Orbit: 450 x 495 km, 97.3° (Epoch: 16 October)

Event Time Altitude Azimuth Distance (km) Brightness Sun altitude
Rises 05:48:48 0° 30° (NNE) 2,529 10.9 -17.3°
Reaches altitude 10° 05:51:27 10° 53° (NE) 1,655 10.3 -16.8°
Maximum altitude 05:53:46 16° 93° (E) 1,313 9.8 -16.4°
Drops below altitude 10° 05:56:06 10° 134° (SE) 1,662 9.7 -16.0°
Sets 05:58:46 0° 156° (SSE) 2,546 10.4 -15.5°
